User: anonymous   Login
Location: Onan Observatory
(44.8103°N, 93.9397°W)
Time: 11:43:07
(UTC-06:00)
Language:

Iridium 90 - Orbit

View from above orbital plane
View from above orbital plane
View from above satellite
View from above satellite

Ground track
Ground track

The orbit data is extracted from the following two-line orbital elements,

1 27373U 02005B   17350.91917561 +.00000170 +00000-0 +44885-4 0  9995
2 27373 086.4477 273.6590 0002180 087.2653 272.8797 14.42953712837631
Epoch (UTC): 16 December 2017 22:03:36
Eccentricity: 0.0002180
inclination: 86.4477°
perigee height: 747 km
apogee height: 750 km
right ascension of ascending node: 273.6590°
argument of perigee: 87.2653°
revolutions per day: 14.42953712
mean anomaly at epoch: 272.8797°
orbit number at epoch: 83763

The dashed part of the orbit path shows where the satellite is in the earth's shadow,  

DLR